Weather History for Rutland, VT

Change the Weather History Date:

Sunday, January 20, 2013

  Actual Average Record
Temperature  
Mean Temperature 32 °F -  
Max Temperature 46 °F - 55 °F (1951)
Min Temperature 18 °F - -19 °F (1971)
Degree Days  
Heating Degree Days 33    
Month to date heating degree days 784  
Since 1 July heating degree days 3194  
Cooling Degree Days 0    
Month to date cooling degree days 0  
Year to date cooling degree days 0  
Moisture  
Dew Point 15 °F    
Average Humidity 54    
Maximum Humidity 70    
Minimum Humidity 37    
Precipitation  
Precipitation 0.01 in - 0.99 in (1973)
Month to date precipitation 0.06  
Year to date precipitation 0.06  
Sea Level Pressure  
Sea Level Pressure 29.66 in    
Wind  
Wind Speed 16 mph (WSW)    
Max Wind Speed 25 mph    
Max Gust Speed 41 mph    
Visibility 10 miles    
Events      
T = Trace of Precipitation, MM = Missing Value Source: NWS Daily Summary

Daily Weather History Graph

Daily Weather History Graph

Search for Another Location

Airport:

Trip Planner

Search our weather history database for the weather conditions in past years. The results will help you decide how hot, cold, wet, or windy it might be!

Date:

Astronomy

Jan. 20, 2013 Rise Set
Actual Time 7:18 AM EST 4:47 PM EST
Civil Twilight 6:47 AM EST 5:18 PM EST
Nautical Twilight 6:12 AM EST 5:54 PM EST
Astronomical Twilight 5:38 AM EST 6:28 PM EST
Moon 11:47 AM EST (1/20) 1:47 AM EST (1/20)
Length of Visible Light 10h 31m
Length of Day
9h 28m
Waxing Gibbous, 66% of the Moon is Illuminated
Jan 20
Waxing Gibbous
Jan 26
Full
Feb 3
Last Quarter
Feb 10
New
Feb 17
First Quarter

Hourly Weather History & Observations

Time (EST) Temp. Windchill Dew Point Humidity Pressure Visibility Wind Dir Wind Speed Gust Speed Precip Events Conditions
12:15 AM 42.8 °F 40.1 °F 21.2 °F 42% 29.74 in 10.0 mi South 4.6 mph - N/A   Overcast
12:35 AM 44.6 °F 39.7 °F 19.4 °F 37% 29.73 in 10.0 mi SSW 9.2 mph 17.3 mph N/A   Overcast
1:15 AM 46.4 °F 45.2 °F 21.2 °F 37% 29.71 in 10.0 mi South 3.5 mph - N/A   Mostly Cloudy
1:35 AM 44.6 °F 38.8 °F 23.0 °F 43% 29.70 in 10.0 mi SW 11.5 mph 17.3 mph N/A   Mostly Cloudy
1:55 AM 44.6 °F 36.1 °F 23.0 °F 43% 29.70 in 10.0 mi SW 21.9 mph 29.9 mph N/A   Overcast
2:15 AM 44.6 °F 39.2 °F 24.8 °F 46% 29.67 in 10.0 mi South 10.4 mph 18.4 mph N/A   Partly Cloudy
3:15 AM 41.0 °F 35.8 °F 24.8 °F 53% 29.63 in 10.0 mi SE 8.1 mph - N/A   Clear
3:35 AM 39.2 °F 33.6 °F 23.0 °F 52% 29.62 in 10.0 mi SE 8.1 mph - N/A   Clear
3:55 AM 41.0 °F 35.8 °F 21.2 °F 45% 29.60 in 10.0 mi SSE 8.1 mph 16.1 mph N/A   Clear
4:15 AM 42.8 °F 38.0 °F 19.4 °F 39% 29.58 in 10.0 mi South 8.1 mph - N/A   Clear
4:35 AM 42.8 °F 37.5 °F 19.4 °F 39% 29.57 in 10.0 mi South 9.2 mph - N/A   Clear
4:56 AM 44.6 °F 39.7 °F 19.4 °F 37% 29.54 in 10.0 mi South 9.2 mph 16.1 mph N/A   Clear
5:15 AM 42.8 °F 38.0 °F 19.4 °F 39% 29.53 in 10.0 mi South 8.1 mph - N/A   Clear
5:55 AM 42.8 °F 36.6 °F 21.2 °F 42% 29.51 in 10.0 mi South 11.5 mph - N/A   Clear
6:15 AM 42.8 °F 37.5 °F 21.2 °F 42% 29.51 in 10.0 mi South 9.2 mph - N/A   Clear
6:35 AM 42.8 °F 38.6 °F 21.2 °F 42% 29.50 in 10.0 mi South 6.9 mph - N/A   Clear
6:55 AM 42.8 °F 37.0 °F 21.2 °F 42% 29.50 in 10.0 mi South 10.4 mph - N/A   Clear
7:15 AM 42.8 °F 37.0 °F 21.2 °F 42% 29.49 in 10.0 mi SSW 10.4 mph 21.9 mph N/A   Clear
7:35 AM 42.8 °F 37.0 °F 21.2 °F 42% 29.48 in 10.0 mi South 10.4 mph - N/A   Clear
7:55 AM 42.8 °F 37.5 °F 23.0 °F 46% 29.47 in 10.0 mi South 9.2 mph 19.6 mph N/A   Partly Cloudy
8:35 AM 44.6 °F 38.4 °F 23.0 °F 43% 29.46 in 10.0 mi South 12.7 mph 21.9 mph N/A   Overcast
8:55 AM 44.6 °F 38.8 °F 23.0 °F 43% 29.47 in 10.0 mi SSW 11.5 mph 31.1 mph N/A   Overcast
9:15 AM 44.6 °F 36.6 °F 24.8 °F 46% 29.48 in 10.0 mi SW 19.6 mph 33.4 mph N/A   Overcast
9:35 AM 44.6 °F 35.9 °F 24.8 °F 46% 29.48 in 10.0 mi SW 23.0 mph 40.3 mph N/A   Overcast
9:55 AM 42.8 °F 33.3 °F 28.4 °F 57% 29.53 in 10.0 mi West 24.2 mph 31.1 mph N/A   Mostly Cloudy
10:15 AM 37.4 °F 27.5 °F 32.0 °F 81% 29.55 in 10.0 mi WSW 18.4 mph 31.1 mph N/A   Overcast
10:35 AM 37.4 °F 29.8 °F 28.4 °F 70% 29.55 in 10.0 mi West 11.5 mph 26.5 mph N/A   Overcast
10:55 AM 37.4 °F 26.9 °F 28.4 °F 70% 29.56 in 10.0 mi WSW 20.7 mph 29.9 mph 0.01 in   Mostly Cloudy
11:15 AM 37.4 °F 28.2 °F 28.4 °F 70% 29.56 in 10.0 mi WSW 16.1 mph 25.3 mph N/A   Overcast
11:55 AM 39.2 °F 28.7 °F 21.2 °F 49% 29.54 in 10.0 mi WSW 23.0 mph 38.0 mph N/A   Scattered Clouds
12:15 PM 37.4 °F 26.4 °F 21.2 °F 52% 29.56 in 3.0 mi WSW 23.0 mph 47.2 mph N/A   Mostly Cloudy
12:35 PM 37.4 °F 26.1 °F 21.2 °F 52% 29.58 in 10.0 mi West 24.2 mph 34.5 mph N/A   Mostly Cloudy
12:55 PM 37.4 °F 25.9 °F 15.8 °F 41% 29.57 in 10.0 mi WSW 25.3 mph 41.4 mph N/A   Mostly Cloudy
1:15 PM 35.6 °F 22.5 °F 15.8 °F 44% 29.58 in 10.0 mi WSW 29.9 mph 36.8 mph N/A   Mostly Cloudy
1:35 PM 35.6 °F 23.7 °F 14.0 °F 41% 29.59 in 10.0 mi West 24.2 mph 40.3 mph N/A   Scattered Clouds
1:55 PM 35.6 °F 24.8 °F 12.2 °F 38% 29.60 in 10.0 mi West 19.6 mph 38.0 mph N/A   Partly Cloudy
2:15 PM 35.6 °F 24.0 °F 12.2 °F 38% 29.61 in 10.0 mi West 23.0 mph 38.0 mph N/A   Clear
2:35 PM 33.8 °F 23.5 °F 12.2 °F 41% 29.64 in 10.0 mi West 16.1 mph 28.8 mph N/A   Clear
3:15 PM 30.2 °F 18.1 °F 12.2 °F 47% 29.68 in 10.0 mi West 18.4 mph 31.1 mph N/A   Mostly Cloudy
3:35 PM 30.2 °F 21.3 °F 12.2 °F 47% 29.70 in 10.0 mi West 10.4 mph 23.0 mph N/A   Overcast
4:15 PM 28.4 °F 15.4 °F 8.6 °F 43% 29.74 in 10.0 mi West 19.6 mph 27.6 mph N/A   Mostly Cloudy
4:35 PM 28.4 °F 14.7 °F 10.4 °F 47% 29.74 in 10.0 mi West 21.9 mph 38.0 mph N/A   Mostly Cloudy
4:55 PM 28.4 °F 15.8 °F 8.6 °F 43% 29.75 in 10.0 mi West 18.4 mph 28.8 mph N/A   Scattered Clouds
5:15 PM 28.4 °F 15.8 °F 6.8 °F 40% 29.75 in 10.0 mi WSW 18.4 mph 34.5 mph N/A   Scattered Clouds
5:35 PM 28.4 °F 18.0 °F 6.8 °F 40% 29.76 in 10.0 mi WSW 12.7 mph 26.5 mph N/A   Mostly Cloudy
6:35 PM 26.6 °F 13.8 °F 10.4 °F 51% 29.79 in 10.0 mi West 17.3 mph 29.9 mph N/A   Mostly Cloudy
6:55 PM 24.8 °F 13.4 °F 10.4 °F 54% 29.81 in 10.0 mi West 12.7 mph 25.3 mph N/A   Scattered Clouds
7:15 PM 24.8 °F 10.7 °F 8.6 °F 50% 29.82 in 10.0 mi WNW 19.6 mph 29.9 mph N/A   Mostly Cloudy
7:55 PM 24.8 °F 9.0 °F 3.2 °F 40% 29.86 in 10.0 mi West 25.3 mph 38.0 mph N/A   Partly Cloudy
8:15 PM 23.0 °F 8.0 °F 3.2 °F 43% 29.85 in 10.0 mi West 20.7 mph 34.5 mph N/A   Mostly Cloudy
8:35 PM 23.0 °F 8.0 °F 3.2 °F 43% 29.86 in 10.0 mi West 20.7 mph 27.6 mph N/A   Mostly Cloudy
9:15 PM 21.2 °F 5.6 °F -0.4 °F 39% 29.88 in 10.0 mi WNW 20.7 mph 31.1 mph N/A   Scattered Clouds
9:35 PM 19.4 °F 5.0 °F -0.4 °F 42% 29.89 in 10.0 mi West 16.1 mph 27.6 mph N/A   Partly Cloudy
9:55 PM 19.4 °F 3.6 °F -0.4 °F 42% 29.90 in 10.0 mi WNW 19.6 mph 25.3 mph N/A   Clear
10:15 PM 19.4 °F 3.6 °F -0.4 °F 42% 29.90 in 10.0 mi West 19.6 mph 27.6 mph N/A   Clear
10:35 PM 19.4 °F 3.6 °F -0.4 °F 42% 29.91 in 10.0 mi West 19.6 mph 26.5 mph N/A   Clear
10:55 PM 17.6 °F 5.7 °F -0.4 °F 45% 29.92 in 10.0 mi West 10.4 mph 25.3 mph N/A   Clear
11:15 PM 17.6 °F 2.7 °F -2.2 °F 42% 29.92 in 10.0 mi West 16.1 mph 26.5 mph N/A   Clear
11:35 PM 17.6 °F 5.7 °F -2.2 °F 42% 29.93 in 10.0 mi West 10.4 mph - N/A   Clear